Tracking 30289 objects as of 29-Apr-2025
HD Live streaming from Space Station
objects crossing your sky now

STARLINK-1336

Track STARLINK-1336 now!
10-day predictions
STARLINK-1336 is classified as:


NORAD ID: 45557
Int'l Code: 2020-025AC
Perigee: 553.3 km
Apogee: 555.5 km
Inclination: 53.1 °
Period: 95.6 minutes
Semi major axis: 6925 km
RCS: Unknown
Launch date: April 22, 2020
Source: United States (US)
Launch site: AIR FORCE EASTERN TEST RANGE (AFETR)
Your satellite tracking list
Your tracking list is empty




NASA's NSSDC Master Catalog

Two Line Element Set (TLE):
1 45557U 20025AC  25118.10563735  .00002554  00000-0  19042-3 0  9997
2 45557  53.0548  63.3289 0001600 106.1755 253.9410 15.06380988277802
Source of the keplerian elements: AFSPC